Weather History for Jordan, MT

Change the Weather History Date:

Sunday, March 31, 2013

  Actual Average Record
Temperature  
Mean Temperature 34 °F 39 °F  
Max Temperature 46 °F 52 °F 79 °F (2004)
Min Temperature 22 °F 27 °F -7 °F (1936)
Degree Days  
Heating Degree Days 31 26  
Month to date heating degree days 1068 984  
Since 1 July heating degree days 6526 7102  
Cooling Degree Days 0 0  
Month to date cooling degree days 0 0  
Year to date cooling degree days 0 0  
Moisture  
Dew Point 25 °F    
Average Humidity 64    
Maximum Humidity 84    
Minimum Humidity 44    
Precipitation  
Precipitation 0.00 in 0.02 in 0.19 in (1920)
Month to date precipitation 0.74 0.52  
Year to date precipitation 1.14 1.00  
Snow  
Snow 0.00 in - - ()
Month to date snowfall 0.0  
Since 1 July snowfall 0.0  
Snow Depth 0.00 in    
Sea Level Pressure  
Sea Level Pressure 30.16 in    
Wind  
Wind Speed 9 mph (ENE)    
Max Wind Speed 17 mph    
Max Gust Speed 21 mph    
T = Trace of Precipitation, MM = Missing Value Source: NWS Daily Summary

Daily Weather History Graph

Daily Weather History Graph

Search for Another Location

Airport:

Trip Planner

Search our weather history database for the weather conditions in past years. The results will help you decide how hot, cold, wet, or windy it might be!

Date:

Astronomy

Mar. 31, 2013 Rise Set
Actual Time 6:48 AM MDT 7:36 PM MDT
Civil Twilight 6:17 AM MDT 8:07 PM MDT
Nautical Twilight 5:40 AM MDT 8:44 PM MDT
Astronomical Twilight 5:01 AM MDT 9:23 PM MDT
Moon 12:02 AM MDT (3/31) 9:20 AM MDT (3/31)
Length of Visible Light 13h 50m
Length of Day
12h 48m
Waning Gibbous, 77% of the Moon is Illuminated
Mar 31
Waning Gibbous
Apr 2
Last Quarter
Apr 10
New
Apr 18
First Quarter
Apr 25
Full

Hourly Weather History & Observations

Time (MDT) Temp. Windchill Dew Point Humidity Pressure Visibility Wind Dir Wind Speed Gust Speed Precip Events Conditions
12:48 AM 35.1 °F 32.2 °F 28.9 °F 78% 30.11 in - East 3.5 mph - N/A   Unknown
1:48 AM 34.0 °F 31.0 °F 28.9 °F 82% 30.08 in - SE 3.5 mph - N/A   Unknown
2:48 AM 36.0 °F 33.3 °F 27.0 °F 70% 30.04 in - Variable 3.5 mph - N/A   Unknown
3:48 AM 37.0 °F 31.6 °F 26.1 °F 65% 30.02 in - ENE 6.9 mph - N/A   Unknown
4:48 AM 33.1 °F 26.1 °F 25.0 °F 72% 30.03 in - ENE 8.1 mph - N/A   Unknown
5:48 AM 32.0 °F 26.4 °F 26.1 °F 79% 30.00 in - ESE 5.8 mph - N/A   Unknown
6:48 AM 30.9 °F 24.3 °F 25.0 °F 79% 30.04 in - East 6.9 mph - N/A   Unknown
7:48 AM 30.9 °F 21.2 °F 21.9 °F 69% 30.08 in - ENE 12.7 mph - N/A   Unknown
8:48 AM 32.0 °F 22.1 °F 19.9 °F 61% 30.12 in - ENE 13.8 mph - N/A   Unknown
9:48 AM 34.0 °F 25.0 °F 19.0 °F 54% 30.14 in - NE 12.7 mph - N/A   Unknown
10:48 AM 37.9 °F 30.5 °F 18.0 °F 45% 30.16 in - East 11.5 mph - N/A   Unknown
11:48 AM 39.0 °F 32.3 °F 21.9 °F 50% 30.19 in - ENE 10.4 mph - N/A   Unknown
12:48 PM 42.1 °F 36.1 °F 26.1 °F 53% 30.20 in - NNE 10.4 mph - N/A   Unknown
1:48 PM 43.0 °F 36.4 °F 27.0 °F 53% 30.21 in - NNE 12.7 mph 16.1 mph N/A   Unknown
2:48 PM 44.1 °F 37.7 °F 28.0 °F 53% 30.22 in - NNW 12.7 mph - N/A   Unknown
3:48 PM 44.1 °F 37.7 °F 27.0 °F 51% 30.22 in - NE 12.7 mph - N/A   Unknown
4:48 PM 43.0 °F 36.0 °F 27.0 °F 53% 30.23 in - NNE 13.8 mph 18.4 mph N/A   Unknown
5:48 PM 44.1 °F 39.0 °F 27.0 °F 51% 30.23 in - NNE 9.2 mph - N/A   Unknown
6:48 PM 39.0 °F 32.3 °F 26.1 °F 60% 30.25 in - East 10.4 mph - N/A   Unknown
7:48 PM 35.1 °F 28.6 °F 25.0 °F 67% 30.25 in - East 8.1 mph - N/A   Unknown
8:48 PM 30.0 °F 23.2 °F 24.1 °F 79% 30.26 in - ENE 6.9 mph - N/A   Unknown
9:48 PM 28.9 °F 23.9 °F 23.0 °F 78% 30.27 in - ESE 4.6 mph - N/A   Unknown
10:48 PM 27.0 °F 20.5 °F 23.0 °F 85% 30.26 in - East 5.8 mph - N/A   Unknown
11:48 PM 26.1 °F 20.5 °F 21.9 °F 84% 30.27 in - East 4.6 mph - N/A   Unknown